START_TIME,STEP,MOV.,M35,t_acc.,PL05,t_acc.,PL06,t_acc.,PL07,t_acc.
1979-07-29 18:00:22.990 ,0,1,1.,4.8,32.,4.8,8.,4.8,0.,4.8
1979-07-29 18:00:27.790 ,0,1,0.,4.8,26.,4.8,10.,4.8,1.,4.8
1979-07-29 18:00:32.590 ,0,1,0.,4.8,10.,4.8,1.,4.8,1.,4.8
1979-07-29 18:00:37.390 ,0,1,0.,4.8,6.,4.8,1.,4.8,1.,4.8
1979-07-29 18:00:42.190 ,0,1,0.,4.8,12.,4.8,2.,4.8,1.,4.8
1979-07-29 18:00:46.990 ,4,1,0.,4.8,13.,4.8,2.,4.8,1.,4.8
1979-07-29 18:00:51.790 ,4,1,0.,4.8,7.,4.8,2.,4.8,1.,4.8
1979-07-29 18:00:56.590 ,4,1,0.,4.8,22.,4.8,7.,4.8,0.,4.8
1979-07-29 18:01:01.390 ,4,1,0.,4.8,26.,4.8,8.,4.8,3.,4.8
1979-07-29 18:01:06.190 ,4,1,0.,4.8,49.,4.8,4.,4.8,1.,4.8
1979-07-29 18:01:10.990 ,7,1,0.,4.8,36.,4.8,4.,4.8,0.,4.8
1979-07-29 18:01:15.790 ,7,1,0.,4.8,38.,4.8,4.,4.8,3.,4.8
1979-07-29 18:01:20.590 ,7,1,0.,4.8,20.,4.8,6.,4.8,0.,4.8
1979-07-29 18:01:25.390 ,7,1,0.,4.8,5.,4.8,2.,4.8,0.,4.8
1979-07-29 18:01:30.190 ,7,1,0.,4.8,2.,4.8,0.,4.8,0.,4.8
1979-07-29 18:01:34.990 ,3,1,0.,4.8,8.,4.8,0.,4.8,1.,4.8
1979-07-29 18:01:39.790 ,3,1,0.,4.8,17.,4.8,3.,4.8,0.,4.8
1979-07-29 18:01:44.590 ,3,1,0.,4.8,28.,4.8,3.,4.8,3.,4.8
1979-07-29 18:01:49.390 ,3,1,0.,4.8,37.,4.8,5.,4.8,0.,4.8
1979-07-29 18:01:54.190 ,3,1,0.,4.8,35.,4.8,6.,4.8,5.,4.8
1979-07-29 18:01:58.990 ,0,1,0.,4.8,34.,4.8,5.,4.8,0.,4.8
1979-07-29 18:02:03.790 ,0,1,0.,4.8,21.,4.8,2.,4.8,0.,4.8
1979-07-29 18:02:08.590 ,0,1,0.,4.8,8.,4.8,3.,4.8,0.,4.8
1979-07-29 18:02:13.390 ,0,1,0.,4.8,11.,4.8,0.,4.8,1.,4.8
1979-07-29 18:02:18.190 ,0,1,0.,4.8,13.,4.8,2.,4.8,0.,4.8
1979-07-29 18:02:22.990 ,4,1,0.,4.8,7.,4.8,1.,4.8,3.,4.8
1979-07-29 18:02:27.790 ,4,1,0.,4.8,8.,4.8,1.,4.8,2.,4.8
1979-07-29 18:02:32.590 ,4,1,0.,4.8,32.,4.8,8.,4.8,2.,4.8
1979-07-29 18:02:37.390 ,4,1,0.,4.8,39.,4.8,9.,4.8,2.,4.8
1979-07-29 18:02:42.190 ,4,1,0.,4.8,38.,4.8,4.,4.8,3.,4.8
1979-07-29 18:02:46.990 ,7,1,0.,4.8,30.,4.8,1.,4.8,0.,4.8
1979-07-29 18:02:51.790 ,7,1,0.,4.8,31.,4.8,8.,4.8,2.,4.8
1979-07-29 18:02:56.590 ,7,1,0.,4.8,20.,4.8,5.,4.8,0.,4.8
1979-07-29 18:03:01.390 ,7,1,0.,4.8,3.,4.8,1.,4.8,0.,4.8
1979-07-29 18:03:06.190 ,7,1,0.,4.8,0.,4.8,0.,4.8,2.,4.8
1979-07-29 18:03:10.990 ,3,1,0.,4.8,6.,4.8,1.,4.8,0.,4.8
1979-07-29 18:03:15.790 ,3,1,0.,4.8,23.,4.8,4.,4.8,4.,4.8
1979-07-29 18:03:20.590 ,3,1,0.,4.8,31.,4.8,3.,4.8,4.,4.8
1979-07-29 18:03:25.390 ,3,1,0.,4.8,31.,4.8,2.,4.8,2.,4.8
1979-07-29 18:03:30.190 ,3,1,0.,4.8,37.,4.8,4.,4.8,1.,4.8
1979-07-29 18:03:34.990 ,0,1,0.,4.8,30.,4.8,8.,4.8,4.,4.8
1979-07-29 18:03:39.790 ,0,1,0.,4.8,17.,4.8,2.,4.8,1.,4.8
1979-07-29 18:03:44.590 ,0,1,0.,4.8,2.,4.8,1.,4.8,0.,4.8
1979-07-29 18:03:49.390 ,0,1,0.,4.8,14.,4.8,2.,4.8,2.,4.8
1979-07-29 18:03:54.190 ,0,1,0.,4.8,11.,4.8,7.,4.8,1.,4.8
1979-07-29 18:03:58.990 ,4,1,0.,4.8,18.,4.8,0.,4.8,0.,4.8
1979-07-29 18:04:03.790 ,4,1,0.,4.8,2.,4.8,2.,4.8,1.,4.8
1979-07-29 18:04:08.590 ,4,1,0.,4.8,23.,4.8,2.,4.8,1.,4.8
1979-07-29 18:04:13.390 ,4,1,0.,4.8,30.,4.8,9.,4.8,0.,4.8
1979-07-29 18:04:18.190 ,4,1,0.,4.8,34.,4.8,4.,4.8,0.,4.8
1979-07-29 18:04:22.990 ,7,1,0.,4.8,39.,4.8,7.,4.8,1.,4.8
1979-07-29 18:04:27.790 ,7,1,0.,4.8,36.,4.8,3.,4.8,1.,4.8
1979-07-29 18:04:32.590 ,7,1,0.,4.8,26.,4.8,0.,4.8,1.,4.8
1979-07-29 18:04:37.390 ,7,1,0.,4.8,4.,4.8,0.,4.8,0.,4.8
1979-07-29 18:04:42.190 ,7,1,0.,4.8,0.,4.8,0.,4.8,0.,4.8
1979-07-29 18:04:46.990 ,3,1,0.,4.8,3.,4.8,2.,4.8,1.,4.8
1979-07-29 18:04:51.790 ,3,1,0.,4.8,21.,4.8,2.,4.8,0.,4.8
1979-07-29 18:04:56.590 ,3,1,0.,4.8,25.,4.8,1.,4.8,1.,4.8
1979-07-29 18:05:01.390 ,3,1,0.,4.8,28.,4.8,3.,4.8,1.,4.8
1979-07-29 18:05:06.190 ,3,1,0.,4.8,33.,4.8,4.,4.8,2.,4.8
1979-07-29 18:05:10.990 ,0,1,0.,4.8,37.,4.8,5.,4.8,1.,4.8
1979-07-29 18:05:15.790 ,0,1,0.,4.8,28.,4.8,6.,4.8,4.,4.8
1979-07-29 18:05:20.590 ,0,1,0.,4.8,7.,4.8,1.,4.8,0.,4.8
1979-07-29 18:05:25.390 ,0,1,0.,4.8,7.,4.8,1.,4.8,1.,4.8
1979-07-29 18:05:30.190 ,0,1,0.,4.8,7.,4.8,1.,4.8,0.,4.8
1979-07-29 18:05:34.990 ,0,0,0.,4.8,16.,4.8,0.,4.8,1.,4.8
1979-07-29 18:05:39.790 ,0,0,0.,4.8,4.,4.8,1.,4.8,0.,4.8
1979-07-29 18:05:44.590 ,0,0,0.,4.8,23.,4.8,2.,4.8,2.,4.8
1979-07-29 18:05:49.390 ,0,0,0.,4.8,22.,4.8,6.,4.8,4.,4.8
1979-07-29 18:05:54.190 ,0,0,0.,4.8,29.,4.8,5.,4.8,0.,4.8
1979-07-29 18:05:58.990 ,0,0,0.,4.8,29.,4.8,0.,4.8,0.,4.8
1979-07-29 18:06:03.790 ,0,0,0.,4.8,23.,4.8,5.,4.8,0.,4.8
1979-07-29 18:06:08.590 ,0,0,0.,4.8,25.,4.8,5.,4.8,2.,4.8
1979-07-29 18:06:13.390 ,0,0,1.,4.8,7.,4.8,0.,4.8,0.,4.8
1979-07-29 18:06:18.190 ,0,0,0.,4.8,1.,4.8,0.,4.8,0.,4.8
1979-07-29 18:06:22.990 ,5,0,0.,4.8,2.,4.8,2.,4.8,0.,4.8
1979-07-29 18:06:27.790 ,5,0,0.,4.8,23.,4.8,5.,4.8,5.,4.8
1979-07-29 18:06:32.590 ,5,0,0.,4.8,41.,4.8,6.,4.8,2.,4.8
1979-07-29 18:06:37.390 ,5,0,0.,4.8,34.,4.8,5.,4.8,2.,4.8
1979-07-29 18:06:42.190 ,5,0,0.,4.8,39.,4.8,8.,4.8,4.,4.8
1979-07-29 18:06:46.990 ,5,0,0.,4.8,31.,4.8,7.,4.8,2.,4.8
1979-07-29 18:06:51.790 ,5,0,0.,4.8,31.,4.8,2.,4.8,2.,4.8
1979-07-29 18:06:56.590 ,5,0,0.,4.8,30.,4.8,2.,4.8,3.,4.8
1979-07-29 18:07:01.390 ,5,0,0.,4.8,30.,4.8,6.,4.8,1.,4.8
1979-07-29 18:07:06.190 ,5,0,0.,4.8,36.,4.8,3.,4.8,2.,4.8
1979-07-29 18:07:10.990 ,4,0,0.,4.8,33.,4.8,2.,4.8,2.,4.8
1979-07-29 18:07:15.790 ,4,0,0.,4.8,41.,4.8,8.,4.8,3.,4.8
1979-07-29 18:07:20.590 ,4,0,0.,4.8,26.,4.8,7.,4.8,2.,4.8
1979-07-29 18:07:25.390 ,4,0,0.,4.8,41.,4.8,3.,4.8,1.,4.8
1979-07-29 18:07:30.190 ,4,0,0.,4.8,31.,4.8,4.,4.8,1.,4.8
1979-07-29 18:07:34.990 ,4,0,0.,4.8,39.,4.8,4.,4.8,1.,4.8
1979-07-29 18:07:39.790 ,4,0,0.,4.8,36.,4.8,5.,4.8,1.,4.8
1979-07-29 18:07:44.590 ,4,0,0.,4.8,33.,4.8,5.,4.8,0.,4.8
1979-07-29 18:07:49.390 ,4,0,0.,4.8,28.,4.8,1.,4.8,0.,4.8
1979-07-29 18:07:54.190 ,4,0,0.,4.8,38.,4.8,3.,4.8,2.,4.8
1979-07-29 18:07:58.990 ,3,0,0.,4.8,39.,4.8,7.,4.8,2.,4.8
1979-07-29 18:08:03.790 ,3,0,0.,4.8,33.,4.8,1.,4.8,0.,4.8
1979-07-29 18:08:08.590 ,3,0,0.,4.8,52.,4.8,9.,4.8,1.,4.8
1979-07-29 18:08:13.390 ,3,0,0.,4.8,45.,4.8,5.,4.8,1.,4.8
1979-07-29 18:08:18.190 ,3,0,0.,4.8,32.,4.8,4.,4.8,1.,4.8
1979-07-29 18:08:22.990 ,3,0,0.,4.8,42.,4.8,9.,4.8,3.,4.8
1979-07-29 18:08:27.790 ,3,0,0.,4.8,36.,4.8,8.,4.8,1.,4.8
1979-07-29 18:08:32.590 ,3,0,0.,4.8,41.,4.8,7.,4.8,2.,4.8
1979-07-29 18:08:37.390 ,3,0,0.,4.8,32.,4.8,6.,4.8,6.,4.8
1979-07-29 18:08:42.190 ,3,0,0.,4.8,33.,4.8,3.,4.8,0.,4.8
1979-07-29 18:08:46.990 ,2,0,0.,4.8,49.,4.8,3.,4.8,1.,4.8
1979-07-29 18:08:51.790 ,2,0,0.,4.8,40.,4.8,3.,4.8,0.,4.8
1979-07-29 18:08:56.590 ,2,0,0.,4.8,20.,4.8,6.,4.8,3.,4.8
1979-07-29 18:09:01.390 ,2,0,0.,4.8,22.,4.8,3.,4.8,2.,4.8
1979-07-29 18:09:06.190 ,2,0,0.,4.8,20.,4.8,4.,4.8,1.,4.8
1979-07-29 18:09:10.990 ,2,0,0.,4.8,26.,4.8,10.,4.8,0.,4.8
1979-07-29 18:09:15.790 ,2,0,0.,4.8,27.,4.8,3.,4.8,1.,4.8
1979-07-29 18:09:20.590 ,2,0,0.,4.8,21.,4.8,3.,4.8,0.,4.8
1979-07-29 18:09:25.390 ,2,0,1.,4.8,26.,4.8,1.,4.8,3.,4.8
1979-07-29 18:09:30.190 ,2,0,0.,4.8,26.,4.8,4.,4.8,3.,4.8
1979-07-29 18:09:34.990 ,1,0,0.,4.8,26.,4.8,3.,4.8,2.,4.8
1979-07-29 18:09:39.790 ,1,0,0.,4.8,22.,4.8,4.,4.8,0.,4.8
1979-07-29 18:09:44.590 ,1,0,0.,4.8,3.,4.8,2.,4.8,0.,4.8
1979-07-29 18:09:49.390 ,1,0,0.,4.8,6.,4.8,2.,4.8,0.,4.8
1979-07-29 18:09:54.190 ,1,0,0.,4.8,3.,4.8,2.,4.8,1.,4.8
1979-07-29 18:09:58.990 ,1,0,0.,4.8,7.,4.8,1.,4.8,0.,4.8
1979-07-29 18:10:03.790 ,1,0,0.,4.8,5.,4.8,1.,4.8,1.,4.8
1979-07-29 18:10:08.590 ,1,0,0.,4.8,7.,4.8,0.,4.8,0.,4.8
1979-07-29 18:10:13.390 ,1,0,0.,4.8,8.,4.8,2.,4.8,0.,4.8
1979-07-29 18:10:18.190 ,1,0,0.,4.8,7.,4.8,1.,4.8,0.,4.8
1979-07-29 18:10:22.990 ,0,0,0.,4.8,8.,4.8,1.,4.8,0.,4.8
1979-07-29 18:10:27.790 ,0,0,0.,4.8,3.,4.8,2.,4.8,0.,4.8
1979-07-29 18:10:32.590 ,0,0,0.,4.8,13.,4.8,1.,4.8,2.,4.8
1979-07-29 18:10:37.390 ,0,0,0.,4.8,11.,4.8,1.,4.8,1.,4.8
1979-07-29 18:10:42.190 ,0,0,0.,4.8,15.,4.8,4.,4.8,1.,4.8
1979-07-29 18:10:46.990 ,0,0,0.,4.8,14.,4.8,1.,4.8,0.,4.8
1979-07-29 18:10:51.790 ,0,0,0.,4.8,6.,4.8,2.,4.8,0.,4.8
1979-07-29 18:10:56.590 ,0,0,0.,4.8,11.,4.8,3.,4.8,0.,4.8
1979-07-29 18:11:01.390 ,0,0,0.,4.8,10.,4.8,2.,4.8,1.,4.8
1979-07-29 18:11:06.190 ,0,0,0.,4.8,19.,4.8,2.,4.8,2.,4.8
1979-07-29 18:11:10.990 ,0,0,1.,4.8,12.,4.8,1.,4.8,2.,4.8
1979-07-29 18:11:15.790 ,0,0,0.,4.8,12.,4.8,1.,4.8,4.,4.8
1979-07-29 18:11:20.590 ,0,0,0.,4.8,15.,4.8,2.,4.8,0.,4.8
1979-07-29 18:11:25.390 ,0,0,0.,4.8,20.,4.8,0.,4.8,4.,4.8
1979-07-29 18:11:30.190 ,0,0,0.,4.8,13.,4.8,1.,4.8,1.,4.8
1979-07-29 18:11:34.990 ,0,0,0.,4.8,8.,4.8,1.,4.8,2.,4.8
1979-07-29 18:11:39.790 ,0,0,0.,4.8,12.,4.8,2.,4.8,1.,4.8
1979-07-29 18:11:44.590 ,0,0,0.,4.8,13.,4.8,2.,4.8,0.,4.8
1979-07-29 18:11:49.390 ,0,0,0.,4.8,17.,4.8,3.,4.8,0.,4.8
1979-07-29 18:11:54.190 ,0,0,0.,4.8,10.,4.8,1.,4.8,1.,4.8
1979-07-29 18:11:58.990 ,1,0,0.,4.8,9.,4.8,2.,4.8,2.,4.8
1979-07-29 18:12:03.790 ,1,0,0.,4.8,14.,4.8,2.,4.8,1.,4.8
1979-07-29 18:12:08.590 ,1,0,0.,4.8,8.,4.8,0.,4.8,0.,4.8
1979-07-29 18:12:13.390 ,1,0,0.,4.8,5.,4.8,2.,4.8,0.,4.8
1979-07-29 18:12:18.190 ,1,0,0.,4.8,6.,4.8,2.,4.8,0.,4.8
1979-07-29 18:12:22.990 ,1,0,0.,4.8,8.,4.8,1.,4.8,0.,4.8
1979-07-29 18:12:27.790 ,1,0,0.,4.8,5.,4.8,4.,4.8,1.,4.8
1979-07-29 18:12:32.590 ,1,0,0.,4.8,5.,4.8,2.,4.8,0.,4.8
1979-07-29 18:12:37.390 ,1,0,0.,4.8,7.,4.8,1.,4.8,1.,4.8
1979-07-29 18:12:42.190 ,1,0,0.,4.8,8.,4.8,1.,4.8,0.,4.8
1979-07-29 18:12:46.990 ,2,0,0.,4.8,6.,4.8,1.,4.8,0.,4.8
1979-07-29 18:12:51.790 ,2,0,0.,4.8,9.,4.8,1.,4.8,0.,4.8
1979-07-29 18:12:56.590 ,2,0,0.,4.8,28.,4.8,4.,4.8,0.,4.8
1979-07-29 18:13:01.390 ,2,0,0.,4.8,13.,4.8,2.,4.8,1.,4.8
1979-07-29 18:13:06.190 ,2,0,0.,4.8,20.,4.8,3.,4.8,1.,4.8
1979-07-29 18:13:10.990 ,2,0,0.,4.8,17.,4.8,5.,4.8,2.,4.8
1979-07-29 18:13:15.790 ,2,0,1.,4.8,18.,4.8,4.,4.8,1.,4.8
1979-07-29 18:13:20.590 ,2,0,1.,4.8,10.,4.8,3.,4.8,0.,4.8
1979-07-29 18:13:25.390 ,2,0,0.,4.8,26.,4.8,3.,4.8,0.,4.8
1979-07-29 18:13:30.190 ,2,0,1.,4.8,14.,4.8,5.,4.8,2.,4.8
1979-07-29 18:13:34.990 ,3,0,0.,4.8,15.,4.8,7.,4.8,4.,4.8
1979-07-29 18:13:39.790 ,3,0,0.,4.8,23.,4.8,3.,4.8,0.,4.8
1979-07-29 18:13:44.590 ,3,0,0.,4.8,28.,4.8,4.,4.8,2.,4.8
1979-07-29 18:13:49.390 ,3,0,0.,4.8,39.,4.8,4.,4.8,1.,4.8
1979-07-29 18:13:54.190 ,3,0,0.,4.8,38.,4.8,1.,4.8,2.,4.8
1979-07-29 18:13:58.990 ,3,0,0.,4.8,38.,4.8,2.,4.8,0.,4.8
1979-07-29 18:14:03.790 ,3,0,0.,4.8,42.,4.8,6.,4.8,2.,4.8
1979-07-29 18:14:08.590 ,3,0,0.,4.8,33.,4.8,13.,4.8,2.,4.8
1979-07-29 18:14:13.390 ,3,0,0.,4.8,25.,4.8,6.,4.8,0.,4.8
1979-07-29 18:14:18.190 ,3,0,0.,4.8,40.,4.8,3.,4.8,0.,4.8
1979-07-29 18:14:22.990 ,4,0,0.,4.8,32.,4.8,4.,4.8,2.,4.8
1979-07-29 18:14:27.790 ,4,0,0.,4.8,32.,4.8,5.,4.8,2.,4.8
1979-07-29 18:14:32.590 ,4,0,0.,4.8,41.,4.8,5.,4.8,2.,4.8
1979-07-29 18:14:37.390 ,4,0,0.,4.8,36.,4.8,2.,4.8,0.,4.8
1979-07-29 18:14:42.190 ,4,0,0.,4.8,32.,4.8,5.,4.8,5.,4.8
1979-07-29 18:14:46.990 ,4,0,0.,4.8,35.,4.8,11.,4.8,1.,4.8
1979-07-29 18:14:51.790 ,4,0,0.,4.8,36.,4.8,5.,4.8,2.,4.8
1979-07-29 18:14:56.590 ,4,0,0.,4.8,44.,4.8,7.,4.8,1.,4.8
1979-07-29 18:15:01.390 ,4,0,1.,4.8,38.,4.8,7.,4.8,3.,4.8
1979-07-29 18:15:06.190 ,4,0,0.,4.8,35.,4.8,1.,4.8,1.,4.8
1979-07-29 18:15:10.990 ,5,0,0.,4.8,40.,4.8,1.,4.8,1.,4.8
1979-07-29 18:15:15.790 ,5,0,0.,4.8,34.,4.8,6.,4.8,2.,4.8
1979-07-29 18:15:20.590 ,5,0,0.,4.8,40.,4.8,3.,4.8,0.,4.8
1979-07-29 18:15:25.390 ,5,0,0.,4.8,37.,4.8,4.,4.8,4.,4.8
1979-07-29 18:15:30.190 ,5,0,1.,4.8,38.,4.8,4.,4.8,1.,4.8
1979-07-29 18:15:34.990 ,5,0,0.,4.8,30.,4.8,6.,4.8,2.,4.8
1979-07-29 18:15:39.790 ,5,0,0.,4.8,35.,4.8,6.,4.8,1.,4.8
1979-07-29 18:15:44.590 ,5,0,0.,4.8,29.,4.8,7.,4.8,2.,4.8
1979-07-29 18:15:49.390 ,5,0,0.,4.8,34.,4.8,6.,4.8,4.,4.8
1979-07-29 18:15:54.190 ,5,0,0.,4.8,30.,4.8,2.,4.8,1.,4.8
1979-07-29 18:15:58.990 ,6,0,0.,4.8,35.,4.8,5.,4.8,3.,4.8
1979-07-29 18:16:03.790 ,6,0,1.,4.8,42.,4.8,1.,4.8,1.,4.8
1979-07-29 18:16:08.590 ,6,0,0.,4.8,23.,4.8,1.,4.8,2.,4.8
1979-07-29 18:16:13.390 ,6,0,1.,4.8,20.,4.8,4.,4.8,0.,4.8
1979-07-29 18:16:18.190 ,6,0,0.,4.8,22.,4.8,2.,4.8,0.,4.8
1979-07-29 18:16:22.990 ,6,0,0.,4.8,22.,4.8,4.,4.8,2.,4.8
1979-07-29 18:16:27.790 ,6,0,0.,4.8,19.,4.8,1.,4.8,1.,4.8
1979-07-29 18:16:32.590 ,6,0,0.,4.8,30.,4.8,4.,4.8,4.,4.8
1979-07-29 18:16:37.390 ,6,0,1.,4.8,23.,4.8,1.,4.8,0.,4.8
1979-07-29 18:16:42.190 ,6,0,0.,4.8,21.,4.8,0.,4.8,1.,4.8
1979-07-29 18:16:46.990 ,7,0,0.,4.8,24.,4.8,2.,4.8,0.,4.8
1979-07-29 18:16:51.790 ,7,0,0.,4.8,32.,4.8,4.,4.8,1.,4.8
1979-07-29 18:16:56.590 ,7,0,0.,4.8,0.,4.8,0.,4.8,0.,4.8
1979-07-29 18:17:01.390 ,7,0,0.,4.8,0.,4.8,0.,4.8,1.,4.8
1979-07-29 18:17:06.190 ,7,0,0.,4.8,0.,4.8,0.,4.8,0.,4.8
1979-07-29 18:17:10.990 ,7,0,0.,4.8,2.,4.8,0.,4.8,0.,4.8
1979-07-29 18:17:15.790 ,7,0,0.,4.8,1.,4.8,0.,4.8,0.,4.8
1979-07-29 18:17:20.590 ,7,0,0.,4.8,0.,4.8,0.,4.8,0.,4.8
1979-07-29 18:17:25.390 ,7,0,0.,4.8,1.,4.8,0.,4.8,0.,4.8
1979-07-29 18:17:30.190 ,7,0,0.,4.8,1.,4.8,0.,4.8,0.,4.8
1979-07-29 18:17:34.990 ,7,0,0.,4.8,0.,4.8,0.,4.8,0.,4.8
1979-07-29 18:17:39.790 ,7,0,0.,4.8,1.,4.8,0.,4.8,0.,4.8
1979-07-29 18:17:44.590 ,7,0,0.,4.8,1.,4.8,0.,4.8,0.,4.8
1979-07-29 18:17:49.390 ,7,0,0.,4.8,1.,4.8,0.,4.8,0.,4.8
1979-07-29 18:17:54.190 ,7,0,0.,4.8,1.,4.8,0.,4.8,0.,4.8
1979-07-29 18:17:58.990 ,7,0,0.,4.8,0.,4.8,0.,4.8,0.,4.8
1979-07-29 18:18:03.790 ,7,0,0.,4.8,0.,4.8,0.,4.8,0.,4.8
1979-07-29 18:18:08.590 ,7,0,0.,4.8,0.,4.8,0.,4.8,0.,4.8
1979-07-29 18:18:13.390 ,7,0,0.,4.8,1.,4.8,0.,4.8,0.,4.8
1979-07-29 18:18:18.190 ,7,0,0.,4.8,0.,4.8,0.,4.8,0.,4.8
1979-07-29 18:18:22.990 ,6,0,0.,4.8,0.,4.8,0.,4.8,0.,4.8
1979-07-29 18:18:27.790 ,6,0,0.,4.8,1.,4.8,0.,4.8,0.,4.8
1979-07-29 18:18:32.590 ,6,0,0.,4.8,14.,4.8,2.,4.8,1.,4.8
1979-07-29 18:18:37.390 ,6,0,0.,4.8,21.,4.8,1.,4.8,0.,4.8
1979-07-29 18:18:42.190 ,6,0,1.,4.8,24.,4.8,4.,4.8,0.,4.8
1979-07-29 18:18:46.990 ,6,0,0.,4.8,20.,4.8,1.,4.8,1.,4.8
1979-07-29 18:18:51.790 ,6,0,2.,4.8,32.,4.8,7.,4.8,1.,4.8
1979-07-29 18:18:56.590 ,6,0,0.,4.8,25.,4.8,2.,4.8,5.,4.8
1979-07-29 18:19:01.390 ,6,0,1.,4.8,31.,4.8,3.,4.8,2.,4.8
1979-07-29 18:19:06.190 ,6,0,0.,4.8,30.,4.8,1.,4.8,0.,4.8
1979-07-29 18:19:10.990 ,5,0,0.,4.8,21.,4.8,3.,4.8,1.,4.8
1979-07-29 18:19:15.790 ,5,0,0.,4.8,29.,4.8,2.,4.8,1.,4.8
1979-07-29 18:19:20.590 ,5,0,0.,4.8,38.,4.8,2.,4.8,2.,4.8
1979-07-29 18:19:25.390 ,5,0,0.,4.8,38.,4.8,6.,4.8,2.,4.8
1979-07-29 18:19:30.190 ,5,0,0.,4.8,33.,4.8,4.,4.8,2.,4.8
1979-07-29 18:19:34.990 ,5,0,0.,4.8,38.,4.8,9.,4.8,1.,4.8
1979-07-29 18:19:39.790 ,5,0,0.,4.8,31.,4.8,9.,4.8,2.,4.8
1979-07-29 18:19:44.590 ,5,0,0.,4.8,37.,4.8,3.,4.8,3.,4.8
1979-07-29 18:19:49.390 ,5,0,0.,4.8,49.,4.8,4.,4.8,2.,4.8
1979-07-29 18:19:54.190 ,5,0,0.,4.8,35.,4.8,4.,4.8,2.,4.8
1979-07-29 18:19:58.990 ,4,0,1.,4.8,40.,4.8,6.,4.8,2.,4.8
1979-07-29 18:20:03.790 ,4,0,0.,4.8,33.,4.8,7.,4.8,2.,4.8
1979-07-29 18:20:08.590 ,4,0,0.,4.8,24.,4.8,6.,4.8,2.,4.8
1979-07-29 18:20:13.390 ,4,0,0.,4.8,31.,4.8,3.,4.8,0.,4.8
1979-07-29 18:20:18.190 ,4,0,0.,4.8,33.,4.8,4.,4.8,2.,4.8
1979-07-29 18:20:22.990 ,4,0,0.,4.8,28.,4.8,2.,4.8,1.,4.8
1979-07-29 18:20:27.790 ,4,0,0.,4.8,37.,4.8,2.,4.8,0.,4.8
1979-07-29 18:20:32.590 ,4,0,0.,4.8,38.,4.8,3.,4.8,3.,4.8
1979-07-29 18:20:37.390 ,4,0,0.,4.8,36.,4.8,7.,4.8,2.,4.8
1979-07-29 18:20:42.190 ,4,0,0.,4.8,27.,4.8,5.,4.8,1.,4.8
1979-07-29 18:20:46.990 ,3,0,0.,4.8,25.,4.8,3.,4.8,3.,4.8
1979-07-29 18:20:51.790 ,3,0,0.,4.8,31.,4.8,3.,4.8,1.,4.8
1979-07-29 18:20:56.590 ,3,0,0.,4.8,51.,4.8,3.,4.8,0.,4.8
1979-07-29 18:21:01.390 ,3,0,0.,4.8,38.,4.8,6.,4.8,1.,4.8
1979-07-29 18:21:06.190 ,3,0,0.,4.8,32.,4.8,5.,4.8,1.,4.8
1979-07-29 18:21:10.990 ,3,0,0.,4.8,40.,4.8,8.,4.8,0.,4.8
1979-07-29 18:21:15.790 ,3,0,0.,4.8,39.,4.8,6.,4.8,7.,4.8
1979-07-29 18:21:20.590 ,3,0,0.,4.8,35.,4.8,9.,4.8,4.,4.8
1979-07-29 18:21:25.390 ,3,0,0.,4.8,39.,4.8,3.,4.8,0.,4.8
1979-07-29 18:21:30.190 ,3,0,0.,4.8,37.,4.8,3.,4.8,0.,4.8
1979-07-29 18:21:34.990 ,2,0,0.,4.8,44.,4.8,2.,4.8,0.,4.8
1979-07-29 18:21:39.790 ,2,0,0.,4.8,31.,4.8,7.,4.8,3.,4.8
1979-07-29 18:21:44.590 ,2,0,0.,4.8,17.,4.8,4.,4.8,1.,4.8
1979-07-29 18:21:49.390 ,2,0,0.,4.8,21.,4.8,1.,4.8,3.,4.8
1979-07-29 18:21:54.190 ,2,0,0.,4.8,20.,4.8,4.,4.8,3.,4.8
1979-07-29 18:21:58.990 ,2,0,0.,4.8,17.,4.8,3.,4.8,1.,4.8
1979-07-29 18:22:03.790 ,2,0,0.,4.8,20.,4.8,4.,4.8,2.,4.8
1979-07-29 18:22:08.590 ,2,0,0.,4.8,21.,4.8,4.,4.8,1.,4.8
1979-07-29 18:22:13.390 ,2,0,0.,4.8,26.,4.8,5.,4.8,4.,4.8
1979-07-29 18:22:18.190 ,2,0,0.,4.8,18.,4.8,3.,4.8,4.,4.8
1979-07-29 18:22:22.990 ,1,0,0.,4.8,20.,4.8,4.,4.8,1.,4.8
1979-07-29 18:22:27.790 ,1,0,0.,4.8,20.,4.8,2.,4.8,0.,4.8
1979-07-29 18:22:32.590 ,1,0,0.,4.8,2.,4.8,1.,4.8,0.,4.8
1979-07-29 18:22:37.390 ,1,0,0.,4.8,4.,4.8,3.,4.8,1.,4.8
1979-07-29 18:22:42.190 ,1,0,0.,4.8,8.,4.8,2.,4.8,0.,4.8
1979-07-29 18:22:46.990 ,1,0,0.,4.8,5.,4.8,2.,4.8,1.,4.8
1979-07-29 18:22:51.790 ,1,0,0.,4.8,9.,4.8,3.,4.8,0.,4.8
1979-07-29 18:22:56.590 ,1,0,0.,4.8,7.,4.8,0.,4.8,0.,4.8
1979-07-29 18:23:01.390 ,1,0,0.,4.8,10.,4.8,2.,4.8,0.,4.8
1979-07-29 18:23:06.190 ,1,0,0.,4.8,6.,4.8,4.,4.8,0.,4.8
1979-07-29 18:23:10.990 ,0,0,0.,4.8,8.,4.8,2.,4.8,0.,4.8
1979-07-29 18:23:15.790 ,0,0,0.,4.8,17.,4.8,1.,4.8,0.,4.8
1979-07-29 18:23:20.590 ,0,0,0.,4.8,14.,4.8,4.,4.8,0.,4.8
1979-07-29 18:23:25.390 ,0,0,0.,4.8,10.,4.8,2.,4.8,0.,4.8
1979-07-29 18:23:30.190 ,0,0,0.,4.8,17.,4.8,1.,4.8,0.,4.8
1979-07-29 18:23:34.990 ,0,0,0.,4.8,9.,4.8,1.,4.8,1.,4.8
1979-07-29 18:23:39.790 ,0,0,0.,4.8,10.,4.8,2.,4.8,0.,4.8
1979-07-29 18:23:44.590 ,0,0,0.,4.8,10.,4.8,3.,4.8,1.,4.8
1979-07-29 18:23:49.390 ,0,0,0.,4.8,12.,4.8,4.,4.8,1.,4.8
1979-07-29 18:23:54.190 ,0,0,0.,4.8,9.,4.8,1.,4.8,0.,4.8
1979-07-29 18:23:58.990 ,0,0,0.,4.8,6.,4.8,1.,4.8,0.,4.8
1979-07-29 18:24:03.790 ,0,0,0.,4.8,5.,4.8,0.,4.8,1.,4.8
1979-07-29 18:24:08.590 ,0,0,0.,4.8,9.,4.8,0.,4.8,1.,4.8
1979-07-29 18:24:13.390 ,0,0,0.,4.8,6.,4.8,3.,4.8,0.,4.8
1979-07-29 18:24:18.190 ,0,0,0.,4.8,8.,4.8,1.,4.8,1.,4.8
1979-07-29 18:24:22.990 ,0,0,0.,4.8,15.,4.8,0.,4.8,0.,4.8
1979-07-29 18:24:27.790 ,0,0,0.,4.8,13.,4.8,3.,4.8,1.,4.8
1979-07-29 18:24:32.590 ,0,0,0.,4.8,12.,4.8,4.,4.8,2.,4.8
1979-07-29 18:24:37.390 ,0,0,0.,4.8,15.,4.8,5.,4.8,0.,4.8
1979-07-29 18:24:42.190 ,0,0,0.,4.8,9.,4.8,2.,4.8,0.,4.8
1979-07-29 18:24:46.990 ,1,0,0.,4.8,13.,4.8,0.,4.8,0.,4.8
1979-07-29 18:24:51.790 ,1,0,0.,4.8,8.,4.8,4.,4.8,0.,4.8
1979-07-29 18:24:56.590 ,1,0,0.,4.8,9.,4.8,2.,4.8,0.,4.8
1979-07-29 18:25:01.390 ,1,0,0.,4.8,3.,4.8,1.,4.8,1.,4.8
1979-07-29 18:25:06.190 ,1,0,0.,4.8,10.,4.8,1.,4.8,0.,4.8
1979-07-29 18:25:10.990 ,1,0,0.,4.8,9.,4.8,1.,4.8,2.,4.8
1979-07-29 18:25:15.790 ,1,0,0.,4.8,4.,4.8,1.,4.8,0.,4.8
1979-07-29 18:25:20.590 ,1,0,0.,4.8,3.,4.8,0.,4.8,1.,4.8
1979-07-29 18:25:25.390 ,1,0,0.,4.8,3.,4.8,4.,4.8,1.,4.8
1979-07-29 18:25:30.190 ,1,0,0.,4.8,4.,4.8,2.,4.8,0.,4.8
1979-07-29 18:25:34.990 ,2,0,0.,4.8,4.,4.8,0.,4.8,0.,4.8
1979-07-29 18:25:39.790 ,2,0,0.,4.8,9.,4.8,0.,4.8,0.,4.8
1979-07-29 18:25:44.590 ,2,0,0.,4.8,30.,4.8,7.,4.8,3.,4.8
1979-07-29 18:25:49.390 ,2,0,0.,4.8,20.,4.8,5.,4.8,2.,4.8
1979-07-29 18:25:54.190 ,2,0,0.,4.8,15.,4.8,3.,4.8,2.,4.8
1979-07-29 18:25:58.990 ,2,0,0.,4.8,27.,4.8,7.,4.8,2.,4.8
1979-07-29 18:26:03.790 ,2,0,0.,4.8,21.,4.8,6.,4.8,1.,4.8
1979-07-29 18:26:08.590 ,2,0,0.,4.8,25.,4.8,4.,4.8,5.,4.8
1979-07-29 18:26:13.390 ,2,0,0.,4.8,22.,4.8,2.,4.8,1.,4.8
1979-07-29 18:26:18.190 ,2,0,0.,4.8,23.,4.8,8.,4.8,1.,4.8
1979-07-29 18:26:22.990 ,3,0,0.,4.8,17.,4.8,4.,4.8,0.,4.8
1979-07-29 18:26:27.790 ,3,0,0.,4.8,23.,4.8,4.,4.8,1.,4.8
1979-07-29 18:26:32.590 ,3,0,0.,4.8,31.,4.8,5.,4.8,2.,4.8
1979-07-29 18:26:37.390 ,3,0,0.,4.8,36.,4.8,2.,4.8,1.,4.8
1979-07-29 18:26:42.190 ,3,0,0.,4.8,34.,4.8,4.,4.8,0.,4.8
1979-07-29 18:26:46.990 ,3,0,0.,4.8,39.,4.8,8.,4.8,3.,4.8
1979-07-29 18:26:51.790 ,3,0,0.,4.8,34.,4.8,7.,4.8,2.,4.8
1979-07-29 18:26:56.590 ,3,0,0.,4.8,40.,4.8,3.,4.8,0.,4.8
1979-07-29 18:27:01.390 ,3,0,0.,4.8,36.,4.8,8.,4.8,2.,4.8
1979-07-29 18:27:06.190 ,3,0,0.,4.8,38.,4.8,6.,4.8,2.,4.8
1979-07-29 18:27:10.990 ,4,0,0.,4.8,32.,4.8,6.,4.8,2.,4.8
1979-07-29 18:27:15.790 ,4,0,0.,4.8,26.,4.8,5.,4.8,1.,4.8
1979-07-29 18:27:20.590 ,4,0,0.,4.8,29.,4.8,4.,4.8,0.,4.8
1979-07-29 18:27:25.390 ,4,0,0.,4.8,31.,4.8,1.,4.8,4.,4.8
1979-07-29 18:27:30.190 ,4,0,0.,4.8,35.,4.8,5.,4.8,3.,4.8
1979-07-29 18:27:34.990 ,4,0,0.,4.8,32.,4.8,7.,4.8,3.,4.8
1979-07-29 18:27:39.790 ,4,0,0.,4.8,23.,4.8,9.,4.8,1.,4.8
1979-07-29 18:27:44.590 ,4,0,0.,4.8,21.,4.8,7.,4.8,1.,4.8
1979-07-29 18:27:49.390 ,4,0,0.,4.8,34.,4.8,10.,4.8,2.,4.8
1979-07-29 18:27:54.190 ,4,0,0.,4.8,40.,4.8,8.,4.8,2.,4.8
1979-07-29 18:27:58.990 ,5,0,0.,4.8,25.,4.8,9.,4.8,0.,4.8
1979-07-29 18:28:03.790 ,5,0,0.,4.8,30.,4.8,8.,4.8,1.,4.8
1979-07-29 18:28:08.590 ,5,0,1.,4.8,46.,4.8,8.,4.8,5.,4.8
1979-07-29 18:28:13.390 ,5,0,0.,4.8,31.,4.8,6.,4.8,5.,4.8
1979-07-29 18:28:18.190 ,5,0,0.,4.8,43.,4.8,4.,4.8,4.,4.8
1979-07-29 18:28:22.990 ,5,0,0.,4.8,43.,4.8,5.,4.8,3.,4.8
1979-07-29 18:28:27.790 ,5,0,0.,4.8,34.,4.8,6.,4.8,5.,4.8
1979-07-29 18:28:32.590 ,5,0,0.,4.8,35.,4.8,5.,4.8,1.,4.8
1979-07-29 18:28:37.390 ,5,0,0.,4.8,41.,4.8,7.,4.8,3.,4.8
1979-07-29 18:28:42.190 ,5,0,0.,4.8,32.,4.8,5.,4.8,0.,4.8
1979-07-29 18:28:46.990 ,6,0,0.,4.8,32.,4.8,9.,4.8,2.,4.8
1979-07-29 18:28:51.790 ,6,0,0.,4.8,39.,4.8,2.,4.8,1.,4.8
1979-07-29 18:28:56.590 ,6,0,0.,4.8,41.,4.8,8.,4.8,2.,4.8
1979-07-29 18:29:01.390 ,6,0,0.,4.8,32.,4.8,4.,4.8,1.,4.8
1979-07-29 18:29:06.190 ,6,0,0.,4.8,38.,4.8,5.,4.8,1.,4.8
1979-07-29 18:29:10.990 ,6,0,0.,4.8,34.,4.8,5.,4.8,0.,4.8
1979-07-29 18:29:15.790 ,6,0,0.,4.8,40.,4.8,2.,4.8,0.,4.8
1979-07-29 18:29:20.590 ,6,0,0.,4.8,31.,4.8,5.,4.8,1.,4.8
1979-07-29 18:29:25.390 ,6,0,0.,4.8,34.,4.8,4.,4.8,0.,4.8
1979-07-29 18:29:30.190 ,6,0,0.,4.8,26.,4.8,5.,4.8,2.,4.8
1979-07-29 18:29:34.990 ,7,0,0.,4.8,35.,4.8,6.,4.8,2.,4.8
1979-07-29 18:29:39.790 ,7,0,0.,4.8,26.,4.8,7.,4.8,1.,4.8
1979-07-29 18:29:44.590 ,7,0,0.,4.8,0.,4.8,0.,4.8,0.,4.8
1979-07-29 18:29:49.390 ,7,0,0.,4.8,0.,4.8,0.,4.8,0.,4.8
1979-07-29 18:29:54.190 ,7,0,0.,4.8,2.,4.8,0.,4.8,0.,4.8
1979-07-29 18:29:58.990 ,7,0,0.,4.8,0.,4.8,0.,4.8,0.,4.8
1979-07-29 18:30:03.790 ,7,0,0.,4.8,2.,4.8,0.,4.8,0.,4.8
1979-07-29 18:30:08.590 ,7,0,0.,4.8,2.,4.8,0.,4.8,0.,4.8
1979-07-29 18:30:13.390 ,7,0,0.,4.8,1.,4.8,0.,4.8,0.,4.8
1979-07-29 18:30:18.190 ,7,0,0.,4.8,1.,4.8,0.,4.8,0.,4.8
1979-07-29 18:30:22.990 ,7,0,0.,4.8,0.,4.8,0.,4.8,0.,4.8
1979-07-29 18:30:27.790 ,7,0,0.,4.8,0.,4.8,0.,4.8,0.,4.8
1979-07-29 18:30:32.590 ,7,0,0.,4.8,0.,4.8,0.,4.8,0.,4.8
1979-07-29 18:30:37.390 ,7,0,0.,4.8,0.,4.8,1.,4.8,0.,4.8
1979-07-29 18:30:42.190 ,7,0,0.,4.8,0.,4.8,0.,4.8,0.,4.8
1979-07-29 18:30:46.990 ,7,0,0.,4.8,0.,4.8,0.,4.8,0.,4.8
1979-07-29 18:30:51.790 ,7,0,0.,4.8,1.,4.8,0.,4.8,0.,4.8
1979-07-29 18:30:56.590 ,7,0,0.,4.8,0.,4.8,0.,4.8,0.,4.8
1979-07-29 18:31:01.390 ,7,0,0.,4.8,0.,4.8,0.,4.8,1.,4.8
1979-07-29 18:31:06.190 ,7,0,0.,4.8,0.,4.8,0.,4.8,0.,4.8
1979-07-29 18:31:10.990 ,6,0,0.,4.8,1.,4.8,0.,4.8,0.,4.8
1979-07-29 18:31:15.790 ,6,0,0.,4.8,1.,4.8,0.,4.8,0.,4.8
1979-07-29 18:31:20.590 ,6,0,0.,4.8,26.,4.8,6.,4.8,2.,4.8
1979-07-29 18:31:25.390 ,6,0,0.,4.8,31.,4.8,4.,4.8,1.,4.8
1979-07-29 18:31:30.190 ,6,0,0.,4.8,31.,4.8,12.,4.8,3.,4.8
1979-07-29 18:31:34.990 ,6,0,0.,4.8,43.,4.8,5.,4.8,2.,4.8
1979-07-29 18:31:39.790 ,6,0,0.,4.8,39.,4.8,3.,4.8,1.,4.8
1979-07-29 18:31:44.590 ,6,0,0.,4.8,28.,4.8,10.,4.8,4.,4.8
1979-07-29 18:31:49.390 ,6,0,0.,4.8,33.,4.8,3.,4.8,2.,4.8
1979-07-29 18:31:54.190 ,6,0,0.,4.8,30.,4.8,6.,4.8,4.,4.8
1979-07-29 18:31:58.990 ,5,0,1.,4.8,26.,4.8,9.,4.8,1.,4.8
1979-07-29 18:32:03.790 ,5,0,0.,4.8,41.,4.8,3.,4.8,2.,4.8
1979-07-29 18:32:08.590 ,5,0,0.,4.8,39.,4.8,2.,4.8,0.,4.8
1979-07-29 18:32:13.390 ,5,0,0.,4.8,38.,4.8,5.,4.8,1.,4.8
1979-07-29 18:32:18.190 ,5,0,0.,4.8,33.,4.8,9.,4.8,1.,4.8
1979-07-29 18:32:22.990 ,5,0,0.,4.8,41.,4.8,2.,4.8,1.,4.8
1979-07-29 18:32:27.790 ,5,0,0.,4.8,40.,4.8,5.,4.8,5.,4.8
1979-07-29 18:32:32.590 ,5,0,0.,4.8,39.,4.8,6.,4.8,2.,4.8
1979-07-29 18:32:37.390 ,5,0,0.,4.8,43.,4.8,10.,4.8,2.,4.8
1979-07-29 18:32:42.190 ,5,0,0.,4.8,41.,4.8,3.,4.8,4.,4.8
1979-07-29 18:32:46.990 ,4,0,0.,4.8,29.,4.8,5.,4.8,1.,4.8
1979-07-29 18:32:51.790 ,4,0,0.,4.8,31.,4.8,12.,4.8,6.,4.8